TimeCDT,TemperatureF,Dew PointF,Humidity,Sea Level PressureIn,VisibilityMPH,Wind Direction,Wind SpeedMPH,Gust SpeedMPH,PrecipitationIn,Events,Conditions,WindDirDegrees,DateUTC
12:53 AM,41.0,30.0,65,30.12,9.0,North,8.1,-,N/A,,Clear,350,2013-04-05 05:53:00
1:53 AM,48.0,33.1,56,30.13,10.0,Variable,3.5,-,N/A,,Clear,0,2013-04-05 06:53:00
2:53 AM,46.9,33.1,59,30.13,10.0,NNE,6.9,-,N/A,,Clear,30,2013-04-05 07:53:00
3:53 AM,45.0,32.0,60,30.13,10.0,ENE,5.8,-,N/A,,Clear,60,2013-04-05 08:53:00
4:53 AM,45.0,32.0,60,30.14,10.0,NE,5.8,-,N/A,,Clear,50,2013-04-05 09:53:00
5:53 AM,44.1,32.0,63,30.14,10.0,ENE,9.2,-,N/A,,Clear,70,2013-04-05 10:53:00
6:53 AM,42.1,32.0,67,30.17,10.0,ENE,3.5,-,N/A,,Clear,70,2013-04-05 11:53:00
7:53 AM,43.0,32.0,65,30.19,10.0,ENE,6.9,-,N/A,,Clear,60,2013-04-05 12:53:00
8:53 AM,45.0,32.0,60,30.20,10.0,East,6.9,-,N/A,,Clear,100,2013-04-05 13:53:00
9:53 AM,48.9,33.1,54,30.18,10.0,SE,10.4,-,N/A,,Clear,130,2013-04-05 14:53:00
10:53 AM,54.0,35.1,49,30.16,10.0,ESE,9.2,18.4,N/A,,Clear,120,2013-04-05 15:53:00
11:53 AM,59.0,35.1,41,30.15,10.0,SE,10.4,-,N/A,,Clear,140,2013-04-05 16:53:00
12:53 PM,62.1,36.0,38,30.11,10.0,SSE,11.5,20.7,N/A,,Clear,150,2013-04-05 17:53:00
1:53 PM,66.0,37.0,34,30.06,10.0,South,12.7,21.9,N/A,,Clear,180,2013-04-05 18:53:00
2:53 PM,66.9,37.0,33,30.02,10.0,South,10.4,19.6,N/A,,Clear,190,2013-04-05 19:53:00
3:53 PM,70.0,37.9,31,29.97,10.0,South,17.3,24.2,N/A,,Clear,170,2013-04-05 20:53:00
4:53 PM,70.0,36.0,29,29.93,10.0,South,18.4,24.2,N/A,,Clear,170,2013-04-05 21:53:00
5:53 PM,69.1,37.0,31,29.91,10.0,South,19.6,-,N/A,,Clear,180,2013-04-05 22:53:00
6:53 PM,66.0,39.0,37,29.90,10.0,South,15.0,-,N/A,,Clear,180,2013-04-05 23:53:00
7:53 PM,64.9,37.9,37,29.89,10.0,South,17.3,-,N/A,,Clear,180,2013-04-06 00:53:00
8:53 PM,63.0,39.0,41,29.88,10.0,South,16.1,-,N/A,,Clear,180,2013-04-06 01:53:00
9:53 PM,60.1,39.0,46,29.87,10.0,South,13.8,-,N/A,,Clear,170,2013-04-06 02:53:00
10:53 PM,59.0,39.0,48,29.85,10.0,South,17.3,-,N/A,,Clear,170,2013-04-06 03:53:00
11:53 PM,60.1,35.1,39,29.82,10.0,South,17.3,27.6,N/A,,Clear,180,2013-04-06 04:53:00